AirNav   Air Wisconsin Up To $57,000 Bonus
 
 356 users online  

3M5 Moontown Airport
Huntsville, Alabama, USA

GOING TO HUNTSVILLE?


FAA INFORMATION EFFECTIVE 12 SEPTEMBER 2019

Location

FAA Identifier: 3M5
Lat/Long: 34-44-50.5000N 086-27-39.5000W
34-44.841667N 086-27.658333W
34.7473611,-86.4609722
(estimated)
Elevation: 655 ft. / 200 m (estimated)
Variation: 01W (1985)
From city: 7 miles E of HUNTSVILLE, AL
Time zone: UTC -5 (UTC -6 during Standard Time)
Zip code: 35741

Airport Operations

Airport use: Open to the public
Control tower: no
ARTCC: MEMPHIS CENTER
FSS: ANNISTON FLIGHT SERVICE STATION
NOTAMs facility: ANB (NOTAM-D service available)
Attendance: 1000-1800
Wind indicator: lighted
Segmented circle: no
Lights: ACTVT LIRL RY 09/27 - CTAF.
Beacon: white-green (lighted land airport)
ROTG BCN OTS INDEFLY. ACTVT ROTG BCN - CTAF.

Airport Communications

CTAF/UNICOM: 122.7
WX AWOS-3PT at MDQ (8 nm NW): 120.000 (256-829-1242)
WX ASOS at HSV (17 nm SW): PHONE 256-772-8074
WX AWOS-3 at FYM (19 nm N): 135.275 (931-433-5916)

Nearby radio navigation aids

VOR radial/distance  VOR name  Freq  Var
RQZr107/9.0ROCKET VORTAC112.2002E
DCUr077/24.3DECATUR VOR/DME112.8001W

 
NDB name  Hdg/Dist  Freq  Var  ID
REDSTONE079/11.628704WHUA .... ..- .-

Airport Services

Fuel available: 100LL
Parking: tiedowns
Airframe service: MINOR
Powerplant service: MINOR
Bottled oxygen: NONE
Bulk oxygen: NONE

Runway Information

Runway 9/27

Dimensions: 2180 x 160 ft. / 664 x 49 m
Surface: turf, in good condition
Runway edge lights: low intensity
RUNWAY 9  RUNWAY 27
Latitude: 34-44.845258N34-44.839072N
Longitude: 086-27.875732W086-27.440293W
Elevation: 655.0 ft.634.0 ft.
Traffic pattern: leftright
Runway heading: 092 magnetic, 091 true272 magnetic, 271 true
Obstructions: 31 ft. tree, 1407 ft. from runway, 189 ft. left of centerline, 45:1 slope to clear17 ft. road, 379 ft. from runway, 22:1 slope to clear

Airport Ownership and Management from official FAA records

Ownership: Privately-owned
Owner: JERRY BARNETT
200 AIRPORT DRIVE
BROWNSBORO, AL 35741
Phone 256-852-9781
Manager: JERRY BARNETT
200 AIRPORT DRIVE
BROWNSBORO, AL 35741
Phone 256-852-9781

Airport Operational Statistics

Aircraft based on the field: 96
Single engine airplanes: 83
Multi engine airplanes: 2
Gliders airplanes: 10
Ultralights: 1
    
Aircraft operations: avg 43/day *
63% transient general aviation
37% local general aviation
* for 12-month period ending 16 October 2017

Additional Remarks

TWY LGTS FOR TWY TURNOFF ONLY.
FOR CD CTC MEMPHIS ARTCC AT 901-368-8453.

Instrument Procedures

There are no published instrument procedures at 3M5.

Some nearby airports with instrument procedures:

KMDQ - Huntsville Executive Airport / Tom Sharp Jr Field (8 nm NW)
KHUA - Redstone Army Airfield (12 nm W)
KHSV - Huntsville International Airport-Carl T Jones Field (17 nm SW)
KFYM - Fayetteville Municipal Airport (19 nm N)
4A6 - Scottsboro Municipal Airport-Word Field (23 nm E)
 
Loc | Ops | Rwys | IFR | FBO | Links
Com | Nav | Svcs | Stats | Notes
Area around 3M5 (Moontown Airport)
 
Road maps at: MapQuest Bing Google
 
Aerial photo
WARNING: Photo may not be current or correct
Aerial photo of 3M5 (Moontown Airport)
Photo courtesy of BlakeMathis.com
Taken in April 2008

Do you have a better or more recent aerial photo of Moontown Airport that you would like to share? If so, please send us your photo.

 
Sectional chart

 
Airport distance calculator
Flying to Moontown Airport? Find the distance to fly.

From to 3M5

Sunrise and sunset
Times for 19-Sep-2019
 Local
(UTC-5)
 Zulu
(UTC)
Morning civil twilight06:0711:07
Sunrise06:3311:33
Sunset18:4723:47
Evening civil twilight19:1200:12

Current date and time
Zulu (UTC)  19-Sep-2019 06:18:21
Local (UTC-5)  19-Sep-2019 01:18:21
 
METAR
KMDQ 
8nm NW 
190555Z AUTO 13011G17KT 10SM CLR 24/19 A3006 RMK A02 T02440192 10285 20239
KHUA 
12nm W 
190558Z AUTO 16009KT 10SM CLR 24/20 A3004 RMK AO2 SLP165 T02430197 10309 20243 403510195 53008
KHSV 
17nm W 
190553Z AUTO 13013KT 10SM CLR 24/20 A3004 RMK AO2 SLP165 T02440200 10306 20244 403670189 53007
KFYM 
19nm N 
190555Z AUTO 15009KT 10SM CLR 23/20 A3005 RMK A01
TAF
KHSV 
17nm W 
190520Z 1906/2006 12010KT P6SM SKC FM191800 14011KT P6SM SCT035 FM200100 12007KT P6SM SKC
NOTAMs
Click for the latest NOTAMs
NOTAMs are issued by the DoD/FAA and will open in a separate window not controlled by AirNav.

 

 
 

FBO, Fuel Providers, and Aircraft Ground Support

  
 Business Name 
 
 Contact 
 
 Services / Description 
 
Fuel Prices
 
Comments
  
River Flight Aviation 256-852-9781
no information available

If you are affiliated with River Flight Aviation and would like to show here your services, contact info, web link, logo, and more, click here
100LL
PS $4.70 
 Updated 09-Sep-2019
 
   write
PS=Pump service
Update Fuel Prices
 

Would you like to see your business listed on this page?

 If your business provides an interesting product or service to pilots, flight crews, aircraft, or users of the Moontown Airport, you should consider listing it here.  To start the listing process, click on the button below
 
Add a business
 

Other Pages about Moontown Airport

www.moontownairport.com
 
Update a link
 
Copyright © AirNav, LLC. All rights reserved. Privacy Policy  Contact